Eastover, SC

5:59 PM EDT on June 24, 2017 (GMT -0400)
McEntire Angs

Weather History for KMMT - February, 2013

Change the Weather History Date:

Tuesday, February 12, 2013

  Actual Average Record
Temperature  
Mean Temperature 56 °F -  
Max Temperature 63 °F 58 °F 77 °F (1999)
Min Temperature 49 °F 37 °F 21 °F (2012)
Degree Days  
Heating Degree Days 8    
Growing Degree Days 6 (Base 50)    
Moisture  
Dew Point 49 °F    
Average Humidity 80    
Maximum Humidity 100    
Minimum Humidity 41    
Precipitation  
Precipitation 0.39 in - - ()
Sea Level Pressure  
Sea Level Pressure 30.01 in    
Wind  
Wind Speed 7 mph (NNE)    
Max Wind Speed 14 mph    
Max Gust Speed 18 mph    
Visibility 10 miles    
Events Rain    
Averages and records for this station are not official NWS values.
T = Trace of Precipitation, MM = Missing Value Source: NWS Daily Summary

Daily Weather History Graph

Daily Weather History Graph

Search for Another Location

Airport or City:

Trip Planner

Search our weather history database for the weather conditions in past years. The results will help you decide how hot, cold, wet, or windy it might be!

Date:

Astronomy

Feb. 12, 2013 Rise Set
Actual Time 7:10 AM EST 6:04 PM EST
Civil Twilight 6:44 AM EST 6:30 PM EST
Nautical Twilight 6:15 AM EST 6:59 PM EST
Astronomical Twilight 5:46 AM EST 7:29 PM EST
Moon 8:16 AM EST (2/12) 8:52 PM EST (2/12)
Length of Visible Light 11h 45m
Length of Day
10h 54m
Waxing Crescent, 7% of the Moon is Illuminated
Feb 12
Waxing Crescent
Feb 17
First Quarter
Feb 25
Full
Mar 4
Last Quarter
Mar 11
New

Hourly Weather History & Observations

Time (EST) Temp. Dew Point Humidity Pressure Visibility Wind Dir Wind Speed Gust Speed Precip Events Conditions
12:31 AM 55.4 °F 55.4 °F 100% 30.08 in 10.0 mi SW 13.8 mph - N/A   Scattered Clouds
12:41 AM 55.4 °F 55.4 °F 100% 30.07 in 10.0 mi SW 10.4 mph 18.4 mph N/A Rain Light Rain
12:55 AM 55.8 °F 54.3 °F 95% 30.07 in 10.0 mi WSW 8.1 mph - 0.03 in Rain Light Rain
1:48 AM 55.4 °F 53.6 °F 94% 30.03 in 10.0 mi SSW 6.9 mph - N/A   Mostly Cloudy
1:55 AM 54.9 °F 54.1 °F 97% 30.03 in 10.0 mi SSW 5.8 mph - 0.03 in   Mostly Cloudy
2:55 AM 54.7 °F 53.8 °F 97% 30.04 in 10.0 mi SW 6.9 mph - N/A   Overcast
3:10 AM 55.4 °F 53.6 °F 94% 30.05 in 10.0 mi SW 9.2 mph - N/A Rain Light Rain
3:46 AM 53.6 °F 53.6 °F 100% 30.03 in 10.0 mi West 5.8 mph - N/A   Mostly Cloudy
3:55 AM 54.3 °F 53.8 °F 98% 30.03 in 10.0 mi WSW 4.6 mph - 0.00 in   Mostly Cloudy
4:55 AM 53.8 °F 52.9 °F 97% 30.04 in 10.0 mi Calm Calm - N/A   Overcast
5:55 AM 52.7 °F 51.4 °F 95% 30.06 in 10.0 mi WNW 4.6 mph - N/A   Overcast
6:55 AM 52.7 °F 51.1 °F 94% 30.04 in 10.0 mi Calm Calm - N/A   Mostly Cloudy
7:55 AM 52.5 °F 51.6 °F 97% 30.08 in 10.0 mi West 4.6 mph - N/A   Mostly Cloudy
8:55 AM 53.6 °F 51.8 °F 94% 30.11 in 10.0 mi West 4.6 mph - N/A   Mostly Cloudy
12:58 PM 63.5 °F 44.4 °F 50% 30.04 in 10.0 mi SW 2.3 mph - N/A   Mostly Cloudy
1:58 PM 62.6 °F 41.9 °F 47% 30.01 in 10.0 mi Variable 2.3 mph - N/A   Mostly Cloudy
2:58 PM 63.7 °F 42.1 °F 45% 30.00 in 10.0 mi Variable 3.5 mph - N/A   Mostly Cloudy
3:58 PM 63.9 °F 39.6 °F 41% 29.98 in 10.0 mi North 3.5 mph - N/A   Overcast
4:58 PM 61.2 °F 42.6 °F 51% 29.97 in 10.0 mi NE 4.6 mph - N/A   Overcast
5:45 PM 59.0 °F 42.8 °F 55% 29.97 in 10.0 mi NE 5.8 mph - N/A   Light Drizzle
5:55 PM 59.0 °F 42.8 °F 55% 29.98 in 10.0 mi NE 3.5 mph - N/A   Overcast
5:58 PM 59.0 °F 42.8 °F 55% 29.98 in 10.0 mi NE 3.5 mph - N/A   Overcast
6:58 PM 56.5 °F 45.5 °F 67% 29.97 in 10.0 mi East 2.3 mph - N/A   Overcast
7:04 PM 57.2 °F 46.4 °F 67% 29.95 in 10.0 mi ENE 5.8 mph - N/A Rain Light Rain
7:17 PM 57.2 °F 46.4 °F 67% 29.95 in 10.0 mi ENE 5.8 mph - N/A   Overcast
7:36 PM 57.2 °F 44.6 °F 63% 29.96 in 10.0 mi ENE 3.5 mph - N/A Rain Light Rain
7:58 PM 55.2 °F 48.0 °F 77% 29.96 in 10.0 mi East 3.5 mph - 0.00 in Rain Light Rain
8:58 PM 53.2 °F 48.7 °F 85% 29.97 in 10.0 mi Calm Calm - 0.01 in Rain Light Rain
9:58 PM 52.0 °F 49.5 °F 91% 29.98 in 7.0 mi ENE 6.9 mph - 0.08 in Rain Light Rain
10:50 PM 50.0 °F 48.2 °F 94% 29.98 in 5.0 mi Calm Calm - N/A Rain Light Rain
10:58 PM 50.7 °F 47.7 °F 89% 29.93 in 4.0 mi ENE 9.2 mph - 0.15 in Rain Rain
11:58 PM 49.5 °F 48.0 °F 95% 29.91 in 10.0 mi NE 6.9 mph - 0.09 in Rain Light Rain